sat.trackr.live / text

‹ back to catalog

STARLINK-36889

NORAD 68006 · 2026-039W

PAYLOAD ACTIVE UNKNOWN

§ Identity

Operator
Country
US
Launch date
2026-02-27
Launch site
AFETR
Launch vehicle
Mass (kg)
RCS (m²)

Purposes: comms

External: N2YO · Heavens-Above · Gunter

§ Orbital elements

Epoch: 2026-05-24T22:33:59.352192Z

Period
94.27 min
Inclination
43.0046°
Eccentricity
0.0001847
Mean motion
15.27591375 rev/d
Perigee alt
481.7 km
Apogee alt
484.3 km
Semi-major
6,861.2 km
B*
6.7117e-4
RAAN
338.4218°
Arg perigee
271.2970°
Mean anomaly
88.7670°
Rev number
1,336

§ Raw data

STARLINK-368891 68006U 26039W   26144.94027028  .00018259  00000+0  67117-3 0  99982 68006  43.0046 338.4218 0001847 271.2970  88.7670 15.27591375 13360

JSON: /api/v1/satellites/68006 · /tle

For live sub-satellite position, see the globe view (requires WebGL).

§ Visibility from observer

Set your observer location to see the next 7 days of passes ≥ 10°. The values pass through the URL so the page stays shareable.

No JS? Fill the form by hand. The geolocation button needs JavaScript.